GFSNIL_con_sbcape_159.txt.gz
CAPE
299 336 65 282 406 313 241 435 132 278 682 532 555 564 693 752 765 896 946 831 747 662
332 353 215 280 170 145 71 18 175 829 885 500 483 726 690 681 574 689 604 559 616 499
227 349 336 266 363 56 0 0 197 106 44 71 549 960 877 568 368 152 0 106 338 422
244 216 303 203 111 137 163 72 93 120 14 580 817 1100 879 571 578 308 41 20 223 360
430 282 267 327 152 38 65 247 92 534 232 550 580 605 447 514 768 527 501 422 375 505
280 251 378 345 268 241 56 301 241 200 490 436 494 543 435 438 388 465 464 611 585 370
164 189 297 342 303 188 323 282 347 461 554 352 442 487 366 323 359 374 523 552 432 319
0 0 0 36 155 241 287 306 250 193 175 128 16 0 0 0 75 266 324 427 371 185
3 0 0 0 3 68 132 117 104 90 0 0 2 0 0 0 16 240 410 352 367 163
17 0 0 42 29 19 11 12 1 2 0 0 0 2 0 0 12 127 3 12 156 219
3 1 0 43 43 0 1 2 1 1 2 0 0 0 0 0 14 0 0 0 0 1
0 3 7 19 64 1 1 1 1 3 1 0 0 0 1 0 1 0 0 0 0 1
20 36 44 63 1 1 1 1 1 0 1 0 1 0 1 0 1 0 0 0 0 0
2 1 13 2 1 2 3 1 0 0 1 0 0 0 0 0 0 0 0 0 1 0

GFSNIL_con_sbcape_162.txt.gz
CAPE
8 69 137 34 363 337 274 384 324 295 722 736 808 706 740 1117 1004 1066 1406 963 1071 1096
157 120 244 82 228 367 237 229 181 415 916 616 879 843 898 1006 761 879 834 829 798 862
216 185 207 93 270 117 73 30 277 340 569 401 262 573 1378 1019 684 461 170 192 542 703
123 113 184 211 239 345 28 0 65 273 261 190 791 991 1091 1080 780 681 446 267 315 590
173 130 103 209 171 78 155 283 134 228 404 266 760 593 706 811 1003 843 832 781 632 790
389 274 180 158 201 165 118 118 354 321 549 520 449 681 613 590 559 715 693 772 906 931
149 211 277 317 264 203 283 173 336 374 415 269 420 654 524 512 630 573 634 700 724 713
0 0 0 25 120 215 238 339 371 352 273 167 97 0 0 0 11 149 375 565 707 476
0 0 0 0 0 0 81 253 148 137 4 1 1 0 0 0 0 122 352 369 558 236
0 0 0 11 22 3 2 16 3 3 1 2 1 1 0 0 17 41 15 51 237 447
1 0 0 30 9 6 4 4 3 2 1 1 2 0 0 0 0 0 1 1 3 10
0 0 0 1 4 2 2 2 2 2 1 0 1 0 0 0 0 0 0 0 1 1
4 0 1 0 6 1 1 1 1 1 1 0 0 1 2 0 1 0 1 1 1 1
2 20 8 1 2 1 1 1 2 2 2 1 1 0 1 1 1 0 0 0 1 1

GFSNIL_con_sbcape_165.txt.gz
CAPE
1640 1307 1318 1553 1395 1420 1539 1622 1831 1797 1937 2133 2177 2289 2207 3107 2093 2117 2837 2109 2834 2103
1563 1444 1338 1497 1526 1687 1979 1720 1793 1761 1931 2207 2142 2248 2327 2437 2106 2206 2238 1968 2396 1881
1585 1658 1585 1645 1496 1544 1941 1818 1765 1637 1770 2142 2097 1966 2227 2251 1845 1878 1412 1037 1567 2058
1627 1594 1636 1540 1527 1488 1666 1484 1458 1605 1604 1771 1716 1906 2256 2031 2126 1876 1991 1587 1604 1570
1506 1506 1528 1564 1596 1580 1656 1639 1575 1513 1551 1677 1575 1822 1944 1592 1644 1778 1181 1051 1855 1745
1457 1422 1475 1603 1639 1604 1479 1406 1460 1558 1669 1825 1651 1712 1747 1744 1571 1554 1494 1664 1707 1371
1470 1603 1584 1769 1745 1632 1621 1499 1451 1536 1550 1689 1633 1621 1679 1699 1749 1868 1597 1733 1702 1595
1235 1474 1653 1706 1689 1667 1631 1529 1576 1649 1511 1517 1472 550 778 847 995 1222 1287 1336 1519 1577
702 654 565 1134 1374 1544 1633 1763 1731 1501 1561 1193 0 0 0 0 507 745 1166 1432 1494 1472
207 282 497 708 674 886 1137 851 737 533 441 60 2 0 0 0 430 341 331 211 777 960
72 42 618 357 198 185 165 109 85 41 38 7 3 0 0 0 49 21 4 4 7 54
29 1 56 82 112 69 28 8 8 6 8 7 6 0 0 0 0 1 3 5 4 4
2 12 8 27 3 4 2 1 2 4 2 0 2 0 1 0 5 3 4 3 2 1
54 37 1 2 1 1 2 1 1 2 4 3 2 1 1 1 11 1 0 0 2 0

GFSNIL_con_sbcape_168.txt.gz
CAPE
2268 1958 1248 1163 1341 1156 1035 1184 1722 1905 2035 2349 2294 2354 1778 1700 1532 1922 1939 2082 1682 1437
2337 2209 1404 1558 1830 1416 1572 1449 1756 2013 2271 2325 1984 2212 1572 1359 1406 1353 1368 1515 1617 1599
2079 2198 2078 1909 2058 1639 1595 1499 1908 2169 2136 1755 1507 1964 1673 1585 1417 1596 1423 1218 1603 1839
1893 1867 2087 1664 1932 1676 1207 1335 1424 2321 2020 2011 1300 1389 1803 1732 1379 1351 1222 1169 1543 1523
1965 1970 1794 1742 1628 1937 1546 1434 2026 2132 2017 2039 1904 1964 1550 1443 1123 1111 1252 1429 1432 1419
1981 2072 1878 1768 1952 1758 1984 2100 1962 1931 1792 1206 1363 1587 1398 1509 1586 1546 1117 1199 1328 1361
1969 2078 1876 1829 2123 1938 1988 2036 1933 2084 1481 1194 1190 1443 1537 1561 1542 1484 1256 1486 1743 1731
1879 2076 2150 2086 2245 1844 2063 1975 1906 1997 1577 1368 1444 1406 1814 1685 1615 1876 1667 1610 1803 1644
2323 2245 2302 2457 2586 2475 2227 1977 1873 1919 1606 1502 1235 1 0 33 1399 1732 1767 1806 1759 1789
1914 1453 1760 1889 1797 2152 1889 1471 1674 1850 1745 1695 1547 0 0 0 1103 1415 1365 1138 1550 1527
915 818 833 1252 1490 1145 1280 1561 1679 1527 1475 918 0 0 0 6 965 791 569 337 342 582
692 593 747 602 558 467 459 282 173 408 387 133 6 0 1 0 487 394 110 6 3 97
175 32 123 172 115 26 12 7 7 6 7 1 8 1 1 0 116 118 4 6 6 0
146 172 87 54 3 3 5 2 2 4 5 4 1 3 1 0 17 13 4 1 0 0

GFSNIL_con_sbcape_171.txt.gz
CAPE
2427 1715 1400 1967 2007 757 1021 808 3290 2141 2232 2054 2065 2240 2102 1934 1793 2672 1717 1821 2034 1347
2859 2646 1888 3007 2252 2156 2391 1026 2165 1636 1640 1864 2299 2358 2235 1838 1706 1740 1642 1590 1582 1818
2871 2419 2272 1661 2133 2307 2190 1991 1869 1803 1945 1844 2005 2024 2288 2483 2369 1924 1644 1944 2004 1771
2460 2118 2185 1785 1741 1786 1827 1752 1835 1829 1655 1791 1944 1948 2040 2917 2171 1771 1827 1590 1550 1695
2307 2234 1835 1843 1625 1900 2108 1861 1834 1864 1889 2276 1686 1928 2116 2067 1694 1875 1389 2128 2096 2206
2142 2179 2002 1847 1869 1858 2377 1864 1794 2085 2161 2068 1846 1801 1806 1815 1822 2486 1205 1348 1420 1415
3085 3170 2146 2659 2689 2037 2732 2714 2181 2730 2076 1954 1765 1679 1726 2114 1856 1695 1402 1434 1477 2092
2961 3582 3399 3194 3299 2766 2654 2466 2045 1981 2073 1812 1728 1501 2183 1808 1692 1763 1668 1586 1616 1682
2763 3446 3626 3590 3197 3094 3173 2804 2853 2086 2149 2048 1239 0 0 431 1486 1619 1698 1822 1926 1878
3235 2722 3053 3213 2958 3147 2646 2513 2500 2597 1978 1887 1607 0 0 0 862 1408 1752 1644 1771 1460
1802 1204 1770 2428 2590 2650 2438 2735 2627 2075 1962 1939 0 0 0 0 1022 1384 1130 893 798 1410
1762 973 1355 1721 1658 1749 1502 1430 1593 1455 1601 1347 6 0 1 0 1054 1106 456 128 0 19
807 758 1285 1380 1080 517 47 3 3 2 3 0 3 1 1 0 1165 797 156 31 5 0
142 235 609 368 8 2 2 3 2 2 3 2 2 2 1 0 81 96 36 8 2 0

GFSNIL_con_sbcape_174.txt.gz
CAPE
2957 2553 2340 2654 2269 1753 887 221 1310 2987 3200 3030 2422 2457 3347 2723 2687 1380 2865 3189 3460 2599
3006 2953 2180 2474 2692 803 763 835 906 768 2789 3517 3039 2506 2915 2618 2290 2984 2641 2850 2919 2304
2871 2968 3000 3260 2548 2042 940 351 20 567 2881 2666 2871 2534 3232 2646 2508 2589 2594 2268 1267 1833
2815 2408 2991 2485 2638 2546 2143 1250 1547 1884 3018 2665 2883 3163 2926 2683 1916 1530 1894 2098 2421 1867
2680 2773 2622 2675 2869 3054 2399 2860 2135 2602 2495 2699 2857 2873 3048 2540 1340 783 1748 2110 2113 1953
2908 2972 2637 2380 2921 2929 2712 3279 2982 2981 3005 3394 2625 2752 3291 3265 2101 958 1533 1675 2307 2038
2926 3020 2757 2665 2769 3162 2898 2843 3007 3133 3214 3103 3041 2839 2584 2644 2551 2288 2276 2130 1812 1735
2301 2910 3052 3270 2712 3031 3058 2564 2846 3026 2901 2761 2614 1592 2840 2200 2135 2235 2186 2434 2009 489
2649 2706 3049 2719 2980 2590 2635 3040 2942 2703 2646 2485 1902 0 106 1655 1857 2295 2405 2349 1899 962
1641 1700 1914 2767 3057 3108 2745 2149 1890 2219 2435 2748 675 0 0 0 1282 1613 2075 1909 1921 1730
1293 1203 1371 1622 1431 2272 2901 2320 1924 2216 2423 1946 1 1 0 0 552 1590 1210 952 266 1568
1774 1382 1070 826 828 1259 1556 1030 1297 498 968 829 7 2 1 0 1156 1449 528 5 0 26
438 454 481 448 654 801 690 28 10 2 2 0 2 1 1 0 476 477 324 45 0 1
242 71 187 47 2 22 3 3 3 2 1 1 1 1 1 0 20 57 0 0 0 0